| time (UTC) | temp C | wind direction | speed KPH | gust KPH | rain 1hr cm | rain 24hr cm | rain mn cm | humidity % | barometer mb |
| 20260902223025 | 8 | 111 | 4.8 | 22.5 | 0.00 | 0.00 | 0.00 | 95 | 957.0 |
| 20260902222525 | 8 | 92 | 6.4 | 22.5 | 0.00 | 0.00 | 0.00 | 95 | 957.2 |
| 20260902222025 | 8 | 117 | 6.4 | 17.7 | 0.00 | 0.00 | 0.00 | 95 | 957.0 |
| 20260902221525 | 8 | 199 | 4.8 | 16.1 | 0.00 | 0.00 | 0.00 | 95 | 957.0 |
| 20260902221025 | 8 | 215 | 4.8 | 12.9 | 0.00 | 0.00 | 0.00 | 95 | 957.0 |
| 20260902220525 | 8 | 127 | 4.8 | 12.9 | 0.00 | 0.00 | 0.00 | 95 | 957.0 |
| 20260902220025 | 9 | 200 | 4.8 | 12.9 | 0.00 | 0.00 | 0.00 | 96 | 956.9 |
| 20260902215525 | 9 | 184 | 3.2 | 12.9 | 0.00 | 0.00 | 0.00 | 96 | 956.9 |
| 20260902215025 | 9 | 241 | 3.2 | 12.9 | 0.00 | 0.00 | 0.00 | 96 | 956.9 |
| 20260902214524 | 9 | 251 | 4.8 | 11.3 | 0.00 | 0.00 | 0.00 | 96 | 956.9 |
| 20260902214024 | 9 | 212 | 6.4 | 14.5 | 0.00 | 0.00 | 0.00 | 96 | 956.9 |
| 20260902213524 | 9 | 233 | 4.8 | 14.5 | 0.00 | 0.00 | 0.00 | 96 | 956.9 |
| 20260902213024 | 9 | 230 | 4.8 | 14.5 | 0.00 | 0.00 | 0.00 | 96 | 957.0 |
| 20260902212524 | 8 | 119 | 3.2 | 14.5 | 0.00 | 0.00 | 0.00 | 98 | 956.9 |
| 20260902212024 | 8 | 19 | 1.6 | 8.0 | 0.00 | 0.00 | 0.00 | 99 | 956.9 |
| 20260902211524 | 8 | 136 | 1.6 | 4.8 | 0.00 | 0.00 | 0.00 | 99 | 956.9 |
| 20260902211024 | 8 | 214 | 1.6 | 6.4 | 0.00 | 0.00 | 0.00 | 98 | 957.1 |
| 20260902210524 | 8 | 152 | 1.6 | 6.4 | 0.00 | 0.00 | 0.00 | 98 | 957.0 |
| 20260902210024 | 8 | 120 | 0.0 | 3.2 | 0.00 | 0.00 | 0.00 | 98 | 956.9 |
| 20260902205524 | 8 | 264 | 0.0 | 3.2 | 0.00 | 0.00 | 0.00 | 97 | 956.9 |
| 20260902205024 | 8 | 255 | 0.0 | 3.2 | 0.00 | 0.00 | 0.00 | 97 | 956.9 |
| 20260902204524 | 8 | 39 | 1.6 | 3.2 | 0.00 | 0.00 | 0.00 | 97 | 957.0 |
| 20260902204024 | 8 | 310 | 1.6 | 3.2 | 0.00 | 0.00 | 0.00 | 96 | 956.9 |
| 20260902203524 | 8 | 297 | 0.0 | 3.2 | 0.00 | 0.00 | 0.00 | 95 | 957.0 |
| 20260902203024 | 9 | 278 | 0.0 | 3.2 | 0.00 | 0.00 | 0.00 | 93 | 957.1 |
| 20260902202523 | 9 | 126 | 0.0 | 3.2 | 0.00 | 0.00 | 0.00 | 92 | 957.1 |
| 20260902202023 | 9 | 347 | 0.0 | 3.2 | 0.00 | 0.00 | 0.00 | 91 | 957.0 |
| 20260902201523 | 10 | 60 | 1.6 | 8.0 | 0.00 | 0.00 | 0.00 | 90 | 957.2 |
| 20260902201023 | 10 | 52 | 3.2 | 11.3 | 0.00 | 0.00 | 0.00 | 89 | 957.1 |
| 20260902200523 | 10 | 156 | 4.8 | 11.3 | 0.00 | 0.00 | 0.00 | 89 | 957.1 |
| 20260902200023 | 10 | 228 | 6.4 | 11.3 | 0.00 | 0.00 | 0.00 | 89 | 957.2 |
| 20260902195523 | 10 | 229 | 6.4 | 11.3 | 0.00 | 0.00 | 0.00 | 89 | 957.2 |
| 20260902195023 | 10 | 236 | 6.4 | 11.3 | 0.00 | 0.00 | 0.00 | 89 | 957.2 |
| 20260902194523 | 10 | 238 | 6.4 | 12.9 | 0.00 | 0.00 | 0.00 | 89 | 957.2 |
| 20260902194023 | 10 | 229 | 6.4 | 12.9 | 0.00 | 0.00 | 0.00 | 89 | 957.2 |
| 20260902193523 | 10 | 234 | 6.4 | 12.9 | 0.00 | 0.00 | 0.00 | 90 | 957.2 |
| 20260902193023 | 10 | 224 | 8.0 | 14.5 | 0.00 | 0.00 | 0.00 | 90 | 957.2 |
| 20260902192523 | 10 | 228 | 8.0 | 14.5 | 0.00 | 0.00 | 0.00 | 92 | 957.2 |
| 20260902192023 | 10 | 234 | 4.8 | 11.3 | 0.00 | 0.00 | 0.00 | 94 | 957.2 |
| 20260902191523 | 10 | 228 | 3.2 | 11.3 | 0.00 | 0.00 | 0.00 | 98 | 957.2 |
| 20260902191023 | 9 | 186 | 3.2 | 9.7 | 0.00 | 0.00 | 0.00 | 98 | 957.2 |
| 20260902190523 | 9 | 69 | 3.2 | 8.0 | 0.00 | 0.00 | 0.00 | 97 | 957.2 |
| 20260902190022 | 9 | 52 | 3.2 | 8.0 | 0.00 | 0.00 | 0.00 | 97 | 957.1 |
| 20260902185522 | 10 | 174 | 3.2 | 6.4 | 0.00 | 0.00 | 0.00 | 95 | 957.0 |
| 20260902185022 | 10 | 78 | 3.2 | 6.4 | 0.00 | 0.00 | 0.00 | 95 | 956.8 |
| 20260902184522 | 10 | 71 | 1.6 | 6.4 | 0.00 | 0.00 | 0.00 | 95 | 956.6 |
| 20260902184022 | 10 | 19 | 1.6 | 3.2 | 0.00 | 0.00 | 0.00 | 95 | 956.8 |
| 20260902183522 | 10 | 355 | 1.6 | 6.4 | 0.00 | 0.00 | 0.00 | 94 | 956.8 |
| 20260902183022 | 10 | 336 | 3.2 | 6.4 | 0.00 | 0.00 | 0.00 | 94 | 956.9 |
| 20260902182522 | 10 | 288 | 3.2 | 9.7 | 0.00 | 0.00 | 0.00 | 93 | 956.8 |
| 20260902182022 | 10 | 311 | 3.2 | 11.3 | 0.00 | 0.00 | 0.00 | 92 | 956.7 |
| 20260902181522 | 11 | 249 | 4.8 | 14.5 | 0.00 | 0.00 | 0.00 | 91 | 956.9 |
| 20260902181022 | 11 | 234 | 6.4 | 20.9 | 0.00 | 0.00 | 0.00 | 91 | 956.8 |
| 20260902180522 | 11 | 241 | 8.0 | 20.9 | 0.00 | 0.00 | 0.00 | 92 | 956.8 |
| 20260902180022 | 11 | 236 | 8.0 | 20.9 | 0.00 | 0.00 | 0.00 | 93 | 956.7 |
| 20260902175522 | 11 | 209 | 8.0 | 19.3 | 0.00 | 0.00 | 0.00 | 93 | 956.7 |
| 20260902175022 | 11 | 236 | 6.4 | 17.7 | 0.00 | 0.00 | 0.00 | 91 | 956.7 |
| 20260902174521 | 11 | 242 | 6.4 | 16.1 | 0.00 | 0.00 | 0.00 | 91 | 956.5 |
| 20260902174021 | 11 | 268 | 6.4 | 12.9 | 0.00 | 0.00 | 0.00 | 93 | 956.4 |
| 20260902173521 | 11 | 285 | 6.4 | 14.5 | 0.00 | 0.00 | 0.00 | 92 | 956.4 |
| 20260902173021 | 11 | 297 | 6.4 | 16.1 | 0.00 | 0.00 | 0.00 | 91 | 956.4 |
| 20260902172521 | 11 | 264 | 6.4 | 16.1 | 0.00 | 0.00 | 0.00 | 90 | 956.4 |
| 20260902172021 | 12 | 265 | 8.0 | 17.7 | 0.00 | 0.00 | 0.00 | 90 | 956.4 |
| 20260902171521 | 12 | 284 | 8.0 | 17.7 | 0.00 | 0.00 | 0.00 | 89 | 956.5 |
| 20260902171021 | 12 | 286 | 8.0 | 19.3 | 0.00 | 0.00 | 0.00 | 88 | 956.5 |
| 20260902170521 | 12 | 269 | 8.0 | 19.3 | 0.00 | 0.00 | 0.00 | 87 | 956.5 |
| 20260902170021 | 13 | 246 | 6.4 | 17.7 | 0.00 | 0.00 | 0.00 | 88 | 956.5 |
| 20260902165521 | 13 | 255 | 6.4 | 17.7 | 0.00 | 0.00 | 0.00 | 87 | 956.2 |
| 20260902165021 | 13 | 216 | 6.4 | 16.1 | 0.00 | 0.00 | 0.00 | 87 | 956.3 |
| 20260902164521 | 13 | 273 | 4.8 | 14.5 | 0.00 | 0.00 | 0.00 | 85 | 956.4 |
| 20260902164021 | 14 | 250 | 3.2 | 14.5 | 0.00 | 0.00 | 0.00 | 84 | 956.5 |
| 20260902163521 | 14 | 128 | 3.2 | 9.7 | 0.00 | 0.00 | 0.00 | 83 | 956.5 |
| 20260902163021 | 14 | 228 | 4.8 | 9.7 | 0.00 | 0.00 | 0.00 | 82 | 956.4 |
| 20260902162520 | 15 | 297 | 4.8 | 11.3 | 0.00 | 0.00 | 0.00 | 80 | 956.3 |
| 20260902162020 | 15 | 304 | 4.8 | 14.5 | 0.00 | 0.00 | 0.00 | 78 | 956.3 |
| 20260902161520 | 15 | 269 | 4.8 | 14.5 | 0.00 | 0.00 | 0.00 | 74 | 956.3 |
| 20260902161020 | 15 | 249 | 3.2 | 9.7 | 0.00 | 0.00 | 0.00 | 75 | 956.3 |
| 20260902160520 | 15 | 233 | 4.8 | 17.7 | 0.00 | 0.00 | 0.00 | 74 | 956.1 |
| 20260902160020 | 15 | 160 | 8.0 | 24.1 | 0.00 | 0.00 | 0.00 | 74 | 956.1 |
| 20260902155520 | 15 | 113 | 11.3 | 27.4 | 0.00 | 0.00 | 0.00 | 75 | 956.0 |
| 20260902155020 | 15 | 114 | 14.5 | 29.0 | 0.00 | 0.00 | 0.00 | 75 | 955.9 |
| 20260902154520 | 15 | 106 | 14.5 | 29.0 | 0.00 | 0.00 | 0.00 | 72 | 955.9 |
| 20260902154020 | 16 | 109 | 14.5 | 27.4 | 0.00 | 0.00 | 0.00 | 70 | 956.0 |
| 20260902153520 | 15 | 96 | 14.5 | 25.7 | 0.00 | 0.00 | 0.00 | 75 | 956.0 |
| 20260902153020 | 15 | 97 | 14.5 | 24.1 | 0.00 | 0.00 | 0.00 | 73 | 956.0 |
| 20260902152520 | 15 | 105 | 11.3 | 24.1 | 0.00 | 0.00 | 0.00 | 74 | 956.0 |
| 20260902152020 | 16 | 91 | 9.7 | 20.9 | 0.00 | 0.00 | 0.00 | 74 | 956.1 |
| 20260902151519 | 15 | 109 | 11.3 | 20.9 | 0.00 | 0.00 | 0.00 | 74 | 956.0 |
| 20260902151019 | 15 | 90 | 9.7 | 20.9 | 0.00 | 0.00 | 0.00 | 75 | 956.0 |
| 20260902150519 | 16 | 85 | 9.7 | 20.9 | 0.00 | 0.00 | 0.00 | 77 | 955.9 |
| 20260902150019 | 15 | 65 | 8.0 | 16.1 | 0.00 | 0.00 | 0.00 | 78 | 955.8 |
| 20260902145519 | 16 | 100 | 8.0 | 14.5 | 0.00 | 0.00 | 0.00 | 75 | 955.9 |
| 20260902145019 | 16 | 77 | 4.8 | 17.7 | 0.00 | 0.00 | 0.00 | 73 | 956.1 |
| 20260902144519 | 16 | 176 | 4.8 | 17.7 | 0.00 | 0.00 | 0.00 | 66 | 956.1 |
| 20260902144019 | 16 | 54 | 4.8 | 16.1 | 0.00 | 0.00 | 0.00 | 75 | 956.5 |
| 20260902143519 | 16 | 212 | 6.4 | 16.1 | 0.00 | 0.00 | 0.00 | 75 | 956.4 |
| 20260902143019 | 16 | 245 | 6.4 | 16.1 | 0.00 | 0.00 | 0.00 | 73 | 956.4 |
| 20260902142519 | 16 | 232 | 4.8 | 17.7 | 0.00 | 0.00 | 0.00 | 71 | 956.4 |
| 20260902142019 | 17 | 260 | 8.0 | 24.1 | 0.00 | 0.00 | 0.00 | 70 | 956.5 |
| 20260902141519 | 17 | 175 | 12.9 | 27.4 | 0.00 | 0.00 | 0.00 | 70 | 956.4 |
| 20260902141019 | 17 | 104 | 12.9 | 27.4 | 0.00 | 0.00 | 0.00 | 69 | 956.4 |
| 20260902140519 | 17 | 100 | 12.9 | 25.7 | 0.00 | 0.00 | 0.00 | 68 | 956.5 |
| 20260902140018 | 17 | 226 | 11.3 | 25.7 | 0.00 | 0.00 | 0.00 | 68 | 956.5 |
| 20260902135518 | 18 | 97 | 8.0 | 25.7 | 0.00 | 0.00 | 0.00 | 66 | 956.5 |
| 20260902135018 | 17 | 118 | 8.0 | 22.5 | 0.00 | 0.00 | 0.00 | 68 | 956.6 |
| 20260902134518 | 17 | 146 | 12.9 | 24.1 | 0.00 | 0.00 | 0.00 | 68 | 956.6 |
| 20260902134018 | 17 | 109 | 12.9 | 24.1 | 0.00 | 0.00 | 0.00 | 66 | 956.7 |
| 20260902133518 | 18 | 108 | 12.9 | 22.5 | 0.00 | 0.00 | 0.00 | 64 | 956.5 |
| 20260902133018 | 18 | 75 | 11.3 | 22.5 | 0.00 | 0.00 | 0.00 | 65 | 956.6 |
| 20260902132518 | 17 | 115 | 9.7 | 22.5 | 0.00 | 0.00 | 0.00 | 67 | 956.5 |
| 20260902132018 | 17 | 74 | 9.7 | 19.3 | 0.00 | 0.00 | 0.00 | 70 | 956.7 |
| 20260902131518 | 16 | 104 | 11.3 | 19.3 | 0.00 | 0.00 | 0.00 | 71 | 956.7 |
| 20260902131018 | 16 | 112 | 11.3 | 20.9 | 0.00 | 0.00 | 0.00 | 70 | 956.8 |
| 20260902130518 | 17 | 107 | 11.3 | 20.9 | 0.00 | 0.00 | 0.00 | 67 | 956.9 |
| 20260902130018 | 18 | 86 | 9.7 | 19.3 | 0.00 | 0.00 | 0.00 | 68 | 957.0 |
| 20260902125518 | 17 | 113 | 9.7 | 19.3 | 0.00 | 0.00 | 0.00 | 66 | 957.0 |
| 20260902125017 | 17 | 107 | 9.7 | 20.9 | 0.00 | 0.00 | 0.00 | 65 | 956.9 |
| 20260902124517 | 18 | 95 | 11.3 | 24.1 | 0.00 | 0.00 | 0.00 | 70 | 957.0 |
| 20260902124017 | 17 | 134 | 11.3 | 24.1 | 0.00 | 0.00 | 0.00 | 71 | 957.1 |
| 20260902123517 | 17 | 66 | 12.9 | 24.1 | 0.00 | 0.00 | 0.00 | 67 | 957.1 |
| 20260902123017 | 17 | 109 | 12.9 | 24.1 | 0.00 | 0.00 | 0.00 | 68 | 957.1 |
| 20260902122517 | 18 | 164 | 12.9 | 24.1 | 0.00 | 0.00 | 0.00 | 68 | 957.2 |
| 20260902122017 | 17 | 87 | 12.9 | 25.7 | 0.00 | 0.00 | 0.00 | 70 | 957.3 |
| 20260902121517 | 17 | 114 | 11.3 | 25.7 | 0.00 | 0.00 | 0.00 | 68 | 957.3 |
| 20260902121017 | 18 | 111 | 9.7 | 22.5 | 0.00 | 0.00 | 0.00 | 71 | 957.4 |
| 20260902120517 | 18 | 105 | 9.7 | 24.1 | 0.00 | 0.00 | 0.00 | 71 | 957.4 |
| 20260902120017 | 17 | 98 | 9.7 | 24.1 | 0.00 | 0.00 | 0.00 | 71 | 957.5 |
| 20260902115517 | 17 | 115 | 6.4 | 17.7 | 0.00 | 0.00 | 0.00 | 71 | 957.4 |
| 20260902115017 | 18 | 152 | 4.8 | 16.1 | 0.00 | 0.00 | 0.00 | 73 | 957.5 |
| 20260902114517 | 18 | 217 | 3.2 | 16.1 | 0.00 | 0.00 | 0.00 | 75 | 957.6 |
| 20260902114016 | 17 | 82 | 6.4 | 24.1 | 0.00 | 0.00 | 0.00 | 76 | 957.5 |
| 20260902113516 | 16 | 239 | 9.7 | 24.1 | 0.00 | 0.00 | 0.00 | 78 | 957.5 |
| 20260902113016 | 16 | 99 | 9.7 | 22.5 | 0.00 | 0.00 | 0.00 | 77 | 957.6 |
| 20260902112516 | 16 | 67 | 9.7 | 16.1 | 0.00 | 0.00 | 0.00 | 77 | 957.6 |
| 20260902112016 | 16 | 83 | 9.7 | 19.3 | 0.00 | 0.00 | 0.00 | 78 | 957.6 |
| 20260902111516 | 16 | 91 | 9.7 | 19.3 | 0.00 | 0.00 | 0.00 | 77 | 957.6 |
| 20260902111016 | 16 | 87 | 8.0 | 17.7 | 0.00 | 0.00 | 0.00 | 77 | 957.7 |
| 20260902110516 | 16 | 114 | 6.4 | 14.5 | 0.00 | 0.00 | 0.00 | 77 | 957.8 |
| 20260902110016 | 16 | 110 | 4.8 | 14.5 | 0.00 | 0.00 | 0.00 | 76 | 957.8 |
| 20260902105516 | 16 | 104 | 6.4 | 14.5 | 0.00 | 0.00 | 0.00 | 79 | 957.8 |
| 20260902105016 | 16 | 120 | 8.0 | 14.5 | 0.00 | 0.00 | 0.00 | 78 | 957.8 |
| 20260902104516 | 16 | 76 | 4.8 | 12.9 | 0.00 | 0.00 | 0.00 | 73 | 957.7 |
| 20260902104016 | 17 | 67 | 6.4 | 16.1 | 0.00 | 0.00 | 0.00 | 76 | 957.9 |
| 20260902103516 | 16 | 82 | 8.0 | 16.1 | 0.00 | 0.00 | 0.00 | 76 | 957.8 |
| 20260902103016 | 17 | 98 | 8.0 | 16.1 | 0.00 | 0.00 | 0.00 | 73 | 957.9 |
| 20260902102516 | 17 | 71 | 6.4 | 14.5 | 0.00 | 0.00 | 0.00 | 75 | 957.8 |
| 20260902102015 | 17 | 112 | 6.4 | 17.7 | 0.00 | 0.00 | 0.00 | 74 | 957.8 |
| 20260902101515 | 17 | 283 | 6.4 | 17.7 | 0.00 | 0.00 | 0.00 | 77 | 958.0 |
| 20260902101015 | 17 | 129 | 6.4 | 17.7 | 0.00 | 0.00 | 0.00 | 77 | 957.9 |
| 20260902100515 | 16 | 97 | 4.8 | 16.1 | 0.00 | 0.00 | 0.00 | 76 | 957.9 |
| 20260902100015 | 17 | 76 | 3.2 | 16.1 | 0.00 | 0.00 | 0.00 | 74 | 958.0 |
| 20260902095515 | 17 | 38 | 3.2 | 11.3 | 0.00 | 0.00 | 0.00 | 78 | 958.0 |
| 20260902095015 | 16 | 286 | 4.8 | 11.3 | 0.00 | 0.00 | 0.00 | 80 | 958.0 |
| 20260902094515 | 16 | 113 | 4.8 | 12.9 | 0.00 | 0.00 | 0.00 | 77 | 957.9 |
| 20260902094015 | 16 | 98 | 4.8 | 12.9 | 0.00 | 0.00 | 0.00 | 77 | 958.0 |
| 20260902093515 | 17 | 222 | 3.2 | 14.5 | 0.00 | 0.00 | 0.00 | 75 | 958.3 |
| 20260902093015 | 18 | 76 | 4.8 | 17.7 | 0.00 | 0.00 | 0.00 | 74 | 958.2 |
| 20260902092515 | 18 | 147 | 4.8 | 17.7 | 0.00 | 0.00 | 0.00 | 76 | 958.4 |
| 20260902092015 | 18 | 315 | 4.8 | 14.5 | 0.00 | 0.00 | 0.00 | 81 | 958.2 |
| 20260902091515 | 16 | 128 | 6.4 | 14.5 | 0.00 | 0.00 | 0.00 | 86 | 958.3 |
| 20260902091015 | 15 | 110 | 8.0 | 17.7 | 0.00 | 0.00 | 0.00 | 87 | 958.2 |
| 20260902090514 | 14 | 112 | 8.0 | 17.7 | 0.00 | 0.00 | 0.00 | 88 | 958.1 |
| 20260902090014 | 15 | 113 | 6.4 | 16.1 | 0.00 | 0.00 | 0.00 | 86 | 958.1 |
| 20260902085514 | 15 | 114 | 4.8 | 14.5 | 0.00 | 0.00 | 0.00 | 87 | 958.3 |
| 20260902085014 | 14 | 76 | 8.0 | 16.1 | 0.00 | 0.00 | 0.00 | 86 | 958.1 |
| 20260902084514 | 13 | 242 | 8.0 | 16.1 | 0.00 | 0.00 | 0.00 | 92 | 958.2 |
| 20260902084014 | 13 | 71 | 9.7 | 17.7 | 0.00 | 0.00 | 0.00 | 88 | 958.0 |
| 20260902083514 | 13 | 82 | 9.7 | 17.7 | 0.00 | 0.00 | 0.00 | 88 | 958.2 |
| 20260902083014 | 13 | 60 | 8.0 | 17.7 | 0.00 | 0.00 | 0.00 | 87 | 957.8 |
| 20260902082514 | 13 | 111 | 8.0 | 14.5 | 0.00 | 0.00 | 0.00 | 89 | 957.9 |
| 20260902082014 | 12 | 72 | 8.0 | 14.5 | 0.00 | 0.00 | 0.00 | 92 | 957.9 |
| 20260902081514 | 13 | 94 | 8.0 | 14.5 | 0.00 | 0.00 | 0.00 | 91 | 957.9 |
| 20260902081014 | 12 | 76 | 8.0 | 14.5 | 0.00 | 0.00 | 0.00 | 93 | 957.9 |
| 20260902080514 | 12 | 5 | 9.7 | 16.1 | 0.00 | 0.00 | 0.00 | 93 | 957.9 |
| 20260902080014 | 12 | 52 | 8.0 | 16.1 | 0.00 | 0.00 | 0.00 | 92 | 958.0 |
| 20260902075514 | 13 | 66 | 6.4 | 14.5 | 0.00 | 0.00 | 0.00 | 89 | 957.9 |
| 20260902075014 | 13 | 121 | 4.8 | 11.3 | 0.00 | 0.00 | 0.00 | 91 | 958.3 |
| 20260902074513 | 12 | 102 | 6.4 | 11.3 | 0.00 | 0.00 | 0.00 | 94 | 958.3 |
| 20260902074013 | 12 | 112 | 6.4 | 11.3 | 0.00 | 0.00 | 0.00 | 95 | 958.4 |
| 20260902073513 | 12 | 105 | 6.4 | 11.3 | 0.00 | 0.00 | 0.00 | 95 | 958.3 |
| 20260902073013 | 12 | 126 | 6.4 | 12.9 | 0.00 | 0.00 | 0.00 | 96 | 958.3 |
| 20260902072513 | 11 | 91 | 8.0 | 14.5 | 0.00 | 0.00 | 0.00 | 98 | 958.3 |
| 20260902072013 | 11 | 120 | 8.0 | 14.5 | 0.00 | 0.00 | 0.00 | 98 | 958.3 |
| 20260902071513 | 10 | 82 | 8.0 | 12.9 | 0.00 | 0.00 | 0.00 | 98 | 958.2 |
| 20260902071013 | 10 | 63 | 6.4 | 12.9 | 0.00 | 0.00 | 0.00 | 98 | 958.2 |
| 20260902070513 | 10 | 64 | 4.8 | 12.9 | 0.00 | 0.00 | 0.00 | 98 | 958.2 |
| 20260902070013 | 10 | 28 | 6.4 | 12.9 | 0.00 | 0.00 | 0.00 | 98 | 958.2 |
| 20260902065513 | 10 | 75 | 8.0 | 12.9 | 0.00 | 0.00 | 0.00 | 98 | 958.3 |
| 20260902065013 | 10 | 65 | 8.0 | 12.9 | 0.00 | 0.00 | 0.00 | 98 | 958.2 |
| 20260902064513 | 10 | 82 | 8.0 | 12.9 | 0.00 | 0.00 | 0.00 | 98 | 958.4 |
| 20260902064013 | 10 | 58 | 8.0 | 12.9 | 0.00 | 0.00 | 0.00 | 98 | 958.4 |
| 20260902063513 | 10 | 59 | 9.7 | 12.9 | 0.00 | 0.00 | 0.00 | 99 | 958.5 |
| 20260902063013 | 9 | 72 | 9.7 | 16.1 | 0.00 | 0.00 | 0.00 | 99 | 958.4 |
| 20260902062512 | 9 | 81 | 9.7 | 16.1 | 0.00 | 0.00 | 0.00 | 99 | 958.4 |
| 20260902062012 | 9 | 79 | 9.7 | 14.5 | 0.00 | 0.00 | 0.00 | 99 | 958.4 |
| 20260902061512 | 9 | 68 | 8.0 | 14.5 | 0.00 | 0.00 | 0.00 | 99 | 958.5 |
| 20260902061012 | 8 | 72 | 8.0 | 12.9 | 0.00 | 0.00 | 0.00 | 99 | 958.4 |
| 20260902060512 | 8 | 65 | 8.0 | 12.9 | 0.00 | 0.00 | 0.00 | 99 | 958.3 |
| 20260902060012 | 8 | 64 | 8.0 | 12.9 | 0.00 | 0.00 | 0.00 | 99 | 958.5 |
| 20260902055512 | 8 | 13 | 6.4 | 12.9 | 0.00 | 0.00 | 0.00 | 98 | 958.5 |
| 20260902055012 | 8 | 60 | 4.8 | 12.9 | 0.00 | 0.00 | 0.00 | 98 | 958.5 |
| 20260902054512 | 8 | 29 | 6.4 | 19.3 | 0.00 | 0.00 | 0.00 | 98 | 958.4 |
| 20260902054012 | 8 | 53 | 8.0 | 19.3 | 0.00 | 0.00 | 0.00 | 98 | 958.5 |
| 20260902053512 | 8 | 67 | 9.7 | 19.3 | 0.00 | 0.00 | 0.00 | 98 | 958.5 |
| 20260902053012 | 8 | 64 | 9.7 | 16.1 | 0.00 | 0.00 | 0.00 | 98 | 958.5 |
| 20260902052512 | 8 | 68 | 9.7 | 16.1 | 0.00 | 0.00 | 0.00 | 98 | 958.6 |
| 20260902052012 | 8 | 76 | 8.0 | 12.9 | 0.00 | 0.00 | 0.00 | 98 | 958.6 |
| 20260902051512 | 8 | 58 | 6.4 | 11.3 | 0.00 | 0.00 | 0.00 | 98 | 958.6 |
| 20260902051011 | 8 | 77 | 4.8 | 9.7 | 0.00 | 0.00 | 0.00 | 98 | 958.5 |
| 20260902050511 | 7 | 346 | 4.8 | 9.7 | 0.00 | 0.00 | 0.00 | 98 | 958.5 |
| 20260902050011 | 7 | 323 | 4.8 | 8.0 | 0.00 | 0.00 | 0.00 | 98 | 958.7 |
| 20260902045511 | 7 | 331 | 4.8 | 9.7 | 0.00 | 0.00 | 0.00 | 98 | 958.6 |
| 20260902045011 | 8 | 316 | 4.8 | 9.7 | 0.00 | 0.00 | 0.00 | 97 | 958.6 |
| 20260902044511 | 8 | 312 | 4.8 | 9.7 | 0.00 | 0.00 | 0.00 | 97 | 958.6 |
| 20260902044011 | 8 | 356 | 4.8 | 8.0 | 0.00 | 0.00 | 0.00 | 97 | 958.7 |
| 20260902043511 | 8 | 338 | 4.8 | 8.0 | 0.00 | 0.00 | 0.00 | 97 | 958.7 |
| 20260902043011 | 8 | 357 | 3.2 | 9.7 | 0.00 | 0.00 | 0.00 | 97 | 958.7 |
| 20260902042511 | 8 | 9 | 3.2 | 9.7 | 0.00 | 0.00 | 0.00 | 97 | 958.8 |
| 20260902042011 | 8 | 358 | 3.2 | 9.7 | 0.00 | 0.00 | 0.00 | 98 | 958.9 |
| 20260902041511 | 7 | 76 | 3.2 | 12.9 | 0.00 | 0.00 | 0.00 | 98 | 958.9 |
| 20260902041011 | 7 | 353 | 4.8 | 12.9 | 0.00 | 0.00 | 0.00 | 99 | 958.9 |
| 20260902040511 | 7 | 25 | 4.8 | 9.7 | 0.00 | 0.00 | 0.00 | 99 | 958.9 |
| 20260902040011 | 7 | 354 | 4.8 | 9.7 | 0.00 | 0.00 | 0.00 | 10 | 959.0 |
| 20260902035511 | 6 | 345 | 4.8 | 8.0 | 0.00 | 0.00 | 0.00 | 10 | 959.0 |
| 20260902035011 | 6 | 321 | 4.8 | 8.0 | 0.00 | 0.00 | 0.00 | 10 | 959.1 |
| 20260902034510 | 6 | 327 | 4.8 | 8.0 | 0.00 | 0.00 | 0.00 | 10 | 959.0 |
| 20260902034010 | 6 | 316 | 6.4 | 8.0 | 0.00 | 0.00 | 0.00 | 10 | 959.0 |
| 20260902033510 | 6 | 306 | 6.4 | 8.0 | 0.00 | 0.00 | 0.00 | 10 | 959.0 |
| 20260902033010 | 6 | 305 | 6.4 | 8.0 | 0.00 | 0.00 | 0.00 | 10 | 959.1 |
| 20260902032510 | 6 | 306 | 6.4 | 8.0 | 0.00 | 0.00 | 0.00 | 10 | 959.1 |
| 20260902032010 | 6 | 331 | 6.4 | 9.7 | 0.00 | 0.00 | 0.00 | 10 | 959.2 |
| 20260902031510 | 6 | 315 | 6.4 | 9.7 | 0.00 | 0.00 | 0.00 | 10 | 959.3 |
| 20260902031010 | 6 | 318 | 6.4 | 9.7 | 0.00 | 0.00 | 0.00 | 99 | 959.1 |
| 20260902030510 | 6 | 330 | 6.4 | 11.3 | 0.00 | 0.00 | 0.00 | 99 | 959.2 |
| 20260902030010 | 6 | 332 | 4.8 | 11.3 | 0.00 | 0.00 | 0.00 | 98 | 959.4 |
| 20260902025510 | 7 | 340 | 4.8 | 9.7 | 0.00 | 0.00 | 0.00 | 98 | 959.4 |
| 20260902025010 | 6 | 319 | 6.4 | 9.7 | 0.00 | 0.00 | 0.00 | 98 | 959.5 |
| 20260902024510 | 7 | 306 | 6.4 | 9.7 | 0.00 | 0.00 | 0.00 | 98 | 959.5 |
| 20260902024010 | 7 | 309 | 6.4 | 9.7 | 0.00 | 0.00 | 0.00 | 98 | 959.6 |
| 20260902023510 | 7 | 307 | 4.8 | 9.7 | 0.00 | 0.00 | 0.00 | 97 | 959.6 |
| 20260902023010 | 7 | 11 | 4.8 | 8.0 | 0.00 | 0.00 | 0.00 | 97 | 959.7 |
| 20260902022509 | 7 | 317 | 4.8 | 9.7 | 0.00 | 0.00 | 0.00 | 97 | 959.7 |
| 20260902022009 | 7 | 330 | 6.4 | 9.7 | 0.00 | 0.00 | 0.00 | 96 | 959.8 |
| 20260902021509 | 7 | 303 | 4.8 | 9.7 | 0.00 | 0.00 | 0.00 | 95 | 959.7 |
| 20260902021009 | 7 | 322 | 4.8 | 8.0 | 0.00 | 0.00 | 0.00 | 95 | 959.7 |
| 20260902020509 | 7 | 317 | 4.8 | 8.0 | 0.00 | 0.00 | 0.00 | 94 | 959.8 |
| 20260902020009 | 7 | 328 | 4.8 | 9.7 | 0.00 | 0.00 | 0.00 | 93 | 959.9 |
| 20260902015509 | 7 | 321 | 6.4 | 9.7 | 0.00 | 0.00 | 0.00 | 92 | 960.0 |
| 20260902015009 | 8 | 341 | 4.8 | 8.0 | 0.00 | 0.00 | 0.00 | 91 | 959.9 |
| 20260902014509 | 8 | 317 | 4.8 | 8.0 | 0.00 | 0.00 | 0.00 | 90 | 959.9 |
| 20260902014009 | 8 | 333 | 4.8 | 9.7 | 0.00 | 0.00 | 0.00 | 89 | 960.1 |
| 20260902013509 | 8 | 346 | 4.8 | 9.7 | 0.00 | 0.00 | 0.00 | 89 | 960.1 |
| 20260902013009 | 8 | 12 | 4.8 | 9.7 | 0.00 | 0.00 | 0.00 | 89 | 960.0 |
| 20260902012509 | 8 | 18 | 4.8 | 9.7 | 0.00 | 0.00 | 0.00 | 89 | 960.1 |
| 20260902012009 | 8 | 348 | 4.8 | 9.7 | 0.00 | 0.00 | 0.00 | 90 | 960.1 |
| 20260902011508 | 8 | 359 | 4.8 | 9.7 | 0.00 | 0.00 | 0.00 | 90 | 960.2 |
| 20260902011008 | 8 | 341 | 4.8 | 9.7 | 0.00 | 0.00 | 0.00 | 90 | 960.2 |
| 20260902010508 | 8 | 328 | 4.8 | 8.0 | 0.00 | 0.00 | 0.00 | 90 | 960.4 |
| 20260902010008 | 8 | 13 | 4.8 | 8.0 | 0.00 | 0.00 | 0.00 | 89 | 960.3 |
| 20260902005508 | 8 | 330 | 4.8 | 9.7 | 0.00 | 0.00 | 0.00 | 87 | 960.4 |
| 20260902005008 | 8 | 356 | 4.8 | 9.7 | 0.00 | 0.00 | 0.00 | 87 | 960.4 |
| 20260902004508 | 8 | 353 | 4.8 | 9.7 | 0.00 | 0.00 | 0.00 | 87 | 960.5 |
| 20260902004008 | 8 | 356 | 4.8 | 9.7 | 0.00 | 0.00 | 0.00 | 87 | 960.6 |
| 20260902003508 | 8 | 358 | 3.2 | 8.0 | 0.00 | 0.00 | 0.00 | 87 | 960.5 |
| 20260902003008 | 8 | 356 | 3.2 | 4.8 | 0.00 | 0.00 | 0.00 | 87 | 960.6 |
| 20260902002508 | 8 | 330 | 3.2 | 8.0 | 0.00 | 0.00 | 0.00 | 87 | 960.7 |
| 20260902002008 | 8 | 317 | 3.2 | 8.0 | 0.00 | 0.00 | 0.00 | 86 | 960.7 |
| 20260902001508 | 8 | 340 | 3.2 | 8.0 | 0.00 | 0.00 | 0.00 | 86 | 960.7 |
| 20260902001008 | 8 | 348 | 3.2 | 8.0 | 0.00 | 0.00 | 0.00 | 87 | 960.7 |
| 20260902000508 | 8 | 345 | 3.2 | 8.0 | 0.00 | 0.00 | 0.00 | 87 | 960.7 |
| 20260902000007 | 9 | 350 | 4.8 | 8.0 | 0.00 | 0.00 | 0.00 | 87 | 960.9 |
| 20260901235507 | 8 | 326 | 3.2 | 8.0 | 0.00 | 0.00 | 0.00 | 87 | 960.8 |
| 20260901235007 | 8 | 347 | 3.2 | 6.4 | 0.00 | 0.00 | 0.00 | 87 | 961.0 |
| 20260901234507 | 8 | 15 | 3.2 | 8.0 | 0.00 | 0.00 | 0.00 | 87 | 961.2 |
| 20260901234007 | 9 | 8 | 4.8 | 9.7 | 0.00 | 0.00 | 0.00 | 87 | 961.1 |
| 20260901233507 | 9 | 56 | 6.4 | 9.7 | 0.00 | 0.00 | 0.00 | 87 | 961.2 |
| 20260901233007 | 9 | 63 | 6.4 | 11.3 | 0.00 | 0.00 | 0.00 | 87 | 961.2 |
| 20260901232507 | 9 | 57 | 6.4 | 11.3 | 0.00 | 0.00 | 0.00 | 87 | 961.2 |
| 20260901232007 | 9 | 75 | 4.8 | 9.7 | 0.00 | 0.00 | 0.00 | 87 | 961.2 |
| 20260901231507 | 9 | 31 | 3.2 | 9.7 | 0.00 | 0.00 | 0.00 | 88 | 961.2 |
| 20260901231007 | 9 | 30 | 3.2 | 8.0 | 0.00 | 0.00 | 0.00 | 89 | 961.2 |
| 20260901230507 | 9 | 353 | 3.2 | 9.7 | 0.00 | 0.00 | 0.00 | 90 | 961.2 |
| 20260901230007 | 9 | 5 | 3.2 | 14.5 | 0.00 | 0.00 | 0.00 | 90 | 961.2 |
| 20260901225507 | 9 | 35 | 3.2 | 14.5 | 0.00 | 0.00 | 0.00 | 91 | 961.2 |
| 20260901225007 | 9 | 4 | 3.2 | 9.7 | 0.00 | 0.00 | 0.00 | 91 | 961.2 |
| 20260901224506 | 9 | 58 | 3.2 | 9.7 | 0.00 | 0.00 | 0.00 | 91 | 961.3 |
| 20260901224006 | 9 | 59 | 3.2 | 8.0 | 0.00 | 0.00 | 0.00 | 91 | 961.3 |
| 20260901223506 | 9 | 352 | 3.2 | 8.0 | 0.00 | 0.00 | 0.00 | 92 | 961.4 |